Weather in Sydney

Australia     33°52′24″S   151°12′42″E
temp.,
°C
wind,
m/s
gust,
m/s
humid.,
%
clouds,
%
prec.,
mm/h
press.,
hPa
HPBL,
m
13 april, tue
tue1301:00+12wsw367315 0.1 1021372
04:00+11w36771 0.1 1021172
07:00+11w35771 0.0 1022169
10:00+17wsw21570 0.0 1022688
13:00+20ene34503 0.0 10191237
16:00+19ne45596 0.0 1017573
19:00+17nne496959 0.0 1018404
22:00+15n377999 0.0 1018211
14 april, wed
wed1401:00+13nw37675 0.0 1017156
04:00+12nw38615 0.0 1015156
07:00+13nw49565 0.0 1016181
10:00+21wnw48325 0.0 1015675
13:00+26wnw372845 0.0 10131190
16:00+25w483354 0.0 1012712
19:00+20wnw384399 0.0 1014193
22:00+18wnw24453 0.0 101587
15 april, thu
thu1501:00+16sw22500 0.0 101471
04:00+15wsw35500 0.0 1015175
07:00+13w47580 0.0 1016188
10:00+20wnw45370 0.0 1016611
13:00+24w35310 0.0 10131382
16:00+24sw24340 0.0 1012829
19:00+18w14525 0.0 1015212
22:00+17wsw512495 0.0 1017471
16 april, fri
fri1601:00+15wsw511525 0.0 1018427
04:00
07:00+16sse2570100 0.3 1021372
10:00+18se577596 1.7 1022728
13:00+18sse567797 1.5 1022808
16:00+17se4680100 3.1 1022672
19:00+17se3681100 1.2 1023477
22:00+17ese3582100 2.1 1023395
17 april, sat
sat1701:00+16se2486100 1.6 1022340
04:00+15wsw1293100 5.2 1020162
07:00+15se71194100 18.0 1020865
10:00+15sse6993100 44.3 1021732
13:00+15sse61089100 8.4 1019753
16:00+15s6990100 10.8 1019681
19:00+15sse6990100 2.5 1020696
22:00+15sse488494 4.4 1020559